US_Partners_Report 1

pictures.dealer.com

US_Partners_Report 1

11/7/2010 11/8/2010 LP001 LeasePlan 1165 Sanctuary Pkwy Alpharetta GA 30004 US Carolyn Edwards

11/7/2010 11/8/2010 WP640 Exide Technologies 13000 Deerfield Pkwy,Bldg 200 Alpharetta GA 30004 US

11/7/2010 11/8/2010 XD272 MACTEC, Inc. 1105 Sanctuary Parkway, Suite 300 Alpharetta GA 30004 US

11/7/2010 11/8/2010 NX287 Alimera Sciences, Inc 6120 Windward Parkway, Suite 290 Alpharetta GA 30005 US

1/22/2012 11/8/2010 XA666 Delta Airlines 1030 Delta Blvd Dept 837 Atlanta GA 30320 US bonita reynolds bailey general manager 4047158651 4047986656 bonita.reynolds@delta.com

12/13/2010 11/8/2010 XA661 Georgia Pacific 133 Peachtree St., NE ATLANTA GA 30303 US Brenda Pickens HR Administrator/Employee Relations 404-652-4696 404-652-5456 brenda.pickens@gapac.com

11/7/2010 11/8/2010 NT070 BlueLinx Corp 4300 Wildwood Parkway Atlanta GA 30339 US Carroll Rollins

4/8/2011 11/8/2010 NR410 Atlantic Southeast Airlines 990 Toffie Terrace Atlanta GA 30354 US Cynthia Milner Manager - Rewards &Recognition 404-856-1237 Cynthia.Milner@flyasa.com

8/10/2011 11/8/2010 XA659 Crawford & Co. 1001 Summit Blvd ATLANTA GA 30319 US Kathy Brook Fleet Manager 404 300 1000 404 300 1956 kathy_brook@us.crawco.com

6/29/2011 11/8/2010 XC843 Cox Enterprises, Inc. 6205 Peachtree Dunwoody Road Atlanta GA 30328 US Tammy Myers Paralegal 404-429-2516 678-645-0653 tammy.myers@coxinc.com

3/13/2011 11/8/2010 NL762 Rollins 2170 Piedmont Road Atlanta GA 30324 US Teresa Smith YouDecide 222-222-2222 222-222-2222 kevin.kannenberg@youdecide.com

6/9/2011 11/8/2010 VZ587 Interface 2859 Paces Ferry Road, Suite 2000 ATLANTA GA 30339 US Tim Riordan VP, Supply Chain 7708036958 7704376800 tim.riordan@interfaceglobal.com

3/13/2011 3/4/2011 AE067 Randstad 2015 South Park Place Atlanta GA 30339 US

3/13/2011 3/4/2011 AE073 Sterling National Corporation 210 Interstate North Parkway, Suite 4000 Atlanta GA 30339 US

3/13/2011 11/8/2010 QN881 Georgia Insitiute of Technology Faculty 955 Fowler Street Northwest Atlanta GA 30332 US

3/30/2011 3/4/2011 AE037 AFC Enterprises (Popeyes) 5555 Glenridge Connector NE, Suite 300 Atlanta GA 30342 US

3/13/2011 3/4/2011 AE038 American Cancer Society 250 Williams Street Atlanta GA 30303 US

11/7/2010 11/8/2010 XJ876 Southern Company 241 Ralph McGill Boulevard Atlanta GA 30302 US

11/7/2010 11/8/2010 XY810 Home Depot 2455 Paces Road C15 Atlanta GA 30339 US

11/7/2010 11/8/2010 VH146 AGL Resources 10 Peachtree Place NE ATLANTA GA 30309 US

11/7/2010 11/8/2010 WN887 McKenna Long & Aldridge LLP 303 Peachtree Street, NE Suite 5300 ATLANTA GA 30308 US

11/7/2010 11/8/2010 WP165 CRH/Oldcastle, Inc. 375 Northridge Road Suite 350 Atlanta GA 30350 US

11/7/2010 11/8/2010 XT236 Gold Kist, Inc. 244 Perimeter Center Pkwy. N.E. Atlanta GA 30346 US

11/7/2010 11/8/2010 XC865 Equifax 1550 Peachtree Street ATLANTA GA 30309 US

11/7/2010 11/8/2010 XW110 Chick-fil-A 5200 Buffington Road Atlanta GA 30349 US

11/7/2010 11/8/2010 XG036 Genuine Parts Company 2999 Circle 75 Parkway Atlanta GA 30339 US

11/7/2010 11/8/2010 ZY981 Assurant Solutions 260 Interstate North Circle SE ATLANTA GA 30339 US

11/7/2010 11/8/2010 CC001 Coca Cola Company 1 COCA COLA PLZ NW Atlanta GA 30313 US

11/7/2010 11/8/2010 CC006 Coca Cola Enterprises, Inc. One Coca-Cola Plaza ATLANTA GA 30313 US

11/7/2010 11/8/2010 ZY987 Clark Atlanta University 223 James P. Brawley Drive S.W Atlanta GA 30314 US

11/7/2010 11/8/2010 ZZ002 Internet Security Systems 6303 Barfield Road Atlanta GA 30328 US

11/7/2010 11/8/2010 ZZ012 Sanderson Industries Inc. 3550 Atlanta Industrial Pkwy Atlanta GA 30331 US

11/7/2010 11/8/2010 XA905 APAC, Inc. 900 Ashwood Parkway Atlanta GA 30338 US

11/7/2010 11/8/2010 XM289 Morris Communications 643 Broad Street PO Box 936 Augusta GA 30903 US

11/7/2010 11/8/2010 VF118 Yancey Bros. Co. 330 Lee Industrial Blvd. Austell GA 30168 US

12/6/2010 11/8/2010 AD939 Atlantic Vehicle Processors 175 Penniman Circle Brunswick GA 31523-8102 US Ed Roden General Manager 912 262-6113 ext 11 912-617-1831 ed.roden@2wglobal.com

11/8/2010 LF028 Toms Foods 900 8th Street Columbus GA 31902 US

11/7/2010 11/8/2010 H587D Hoover Precision Products 2200 Pendley Road Cumming GA 30041 US

11/7/2010 11/8/2010 XR215 Shaw Industries Group, Inc 900 U.D. Parrot Jr. Parkway DALTON GA 30722 US

11/7/2010 11/8/2010 WR524 Allied Holdings 160 Clairemont Ave., Fifth Floor Decatur GA 30030 US

11/7/2010 11/8/2010 NP448 Merial, Ltd. 3239 Satellite Blvd.; Bld. 500 Duluth GA 30096 US Cathy Shaw

12/8/2010 11/8/2010 WN132 AGCO 4205 River Green Parkway Duluth GA 30096 US Ralf Wessel Global Fleet Manager 7702328101 Ralf.Wessel@agcocorp.com

11/7/2010 11/8/2010 XN704 Saia Motor Freight Line Inc. 11465 Johns Creek Parkway, Suite 400 Duluth GA 30097 US

11/7/2010 11/8/2010 WC089 Stiefel Laboratories 6340 Sugarload Parkway, Suite 400 Duluth GA 30097 US

11/7/2010 11/8/2010 ZY982 Atlanta Falcons 4400 Falcon Parkway Flowery Branch GA 30542 US

11/7/2010 11/8/2010 RV239 Blue Bird Corporation 402 Blue Bird Boulevard Fort Valley GA 31030 US

12/7/2010 11/8/2010 AD964 John S James Co 6002 Commerce Blvd, Suite 115 P O Box 2166 Garden City GA 31408 US P. Jill James Chief Operating Officer 912 963 2962 912 713 4801 jill.james@johnsjames.com

12/7/2010 11/8/2010 ZY984 Brand Energy and Infrastructure Inc. 1325 Cobb International Dr. Suite A1 KENNESAW GA 30152 US Kathy Lambert Corp HR Manager 678-285-1400 kathy.lambert@beis.com

11/7/2010 11/8/2010 ZZ699 Heidelburg 1000 Gutenburg Drive Kennesaw GA 30144 US Kim Brown

11/7/2010 11/8/2010 WL346 Wise Foods, Inc 245 Townpark Drive, NW Suite 075 Kennesaw GA 30144 US

11/7/2010 11/8/2010 ZY993 Dixien LLC (Dixie Numerics LLC) 5286 Circle Drive Lake City GA 30260 US

11/7/2010 11/8/2010 WT792 Convergent Media 975 Old Norcross Rd., Suite D Lawrenceville GA 30045 US

11/7/2010 11/8/2010 XX880 YKK Corporation of America 1850 Parkway Place, Suite 300 Marietta GA 30067 US

11/7/2010 11/8/2010 WW011 T-Staff, Inc. 4343 Shallowford Road Suite C Marietta GA 30062 US

11/7/2010 11/8/2010 ZY983 Azur Pharma, Inc 3115 Brookview Drive MARIETTA GA 30068 US

11/7/2010 11/8/2010 XA654 C.W. Matthews Constructions Company 1600 Kenview Drive Marietta GA 30061 US

12/21/2010 11/8/2010 ZZ018 Unisia of Georgia 1000 Unisia Drive Monroe GA 30655 US Margie Parks HR Generalist 770-207-0050 770-266-5055 mparks@unisiaga.com

11/7/2010 11/8/2010 WQ515 Linde Gas, LLC 1500C Indian Trail Road Norcross GA 30093 US

11/7/2010 11/8/2010 XX294 RockTenn Company 504 Thrasher Street Norcross GA 30071 US

11/7/2010 11/8/2010 NC817 Wayne Farms LLC 4110 Continental Dr Oakwood GA 30566 US

11/7/2010 11/8/2010 ZZ019 Unisia Steering System Inc 5750 McEver Road Oakwood GA 30566 US

11/7/2010 11/8/2010 ZZ010 Pirelli Tire SPA 100 Pirelli Drive ROME GA 30161 US

11/7/2010 11/8/2010 WN285 Boral Brick 200 Mansell Court Suite 305 Roswell GA 30076 US Linda Ellis

11/7/2010 11/8/2010 WV147 Single Source, Inc. 1000 Holcomb Woods Pkwy, Ste 415 Roswell GA 30076 US

11/7/2010 11/8/2010 NB402 Action Electric Company 2600 Collins Springs Dr.,S.E. Smyrna GA 30080 US

11/7/2010 11/8/2010 WS512 UCB, Inc. 1950 Lake Park Drive Smyrna GA 30080 US

11/7/2010 11/8/2010 ZZ009 OPC, GTC & GSOC 2100 East Exchange Place Tucker GA 30084 US

11/7/2010 11/8/2010 XP506 Iowa Glass 4150 C Street SW Cedar Rapids IA 52404 US

11/7/2010 11/8/2010 UH911 MidAmerican Energy Holding Companies 500 East Ct Des Moines IA 50309 US

11/7/2010 11/8/2010 XL283 The Waldinger Corporation 2601 Bell Avenue DES MOINES IA 50321 US

11/7/2010 11/8/2010 ZZ188 Dee Zee 1572 N.E. 58th Avenue Des Moines IA 50316 US

11/7/2010 11/8/2010 XE354 CONTINENTAL WESTERN GROUP 11201 Douglas DES MOINES IA 50306 US

11/7/2010 11/8/2010 XF347 Allied Group-Nationwide Subsidiary 701 5th Avenue, Dept. 2000 Des Moines IA 50391 US

12/14/2010 11/8/2010 ZZ190 Dubuque Data Services 4135 Westmark Dr. Dubuque IA 52002 US Patricia Dietz HR Director 563-557-7300 pdietz@ddslive.com

11/7/2010 11/8/2010 RV013 Winnebago Industries Gate 1 Crystal Lake P.O. Box 152 Forest City IA 50436 US

11/7/2010 11/8/2010 BA112 Stellar Industries, Inc. 190 State St GARNER IA 50438 US

11/7/2010 11/8/2010 LC160 Dodgen Industries, Inc. PO Box 39, Hwy 169 N Humboldt IA 50548 US

11/7/2010 11/8/2010 WS015 Stanley Consultants 225 Iowa Ave Muscatine IA 52761 US

2/1/2011 11/8/2010 ZZ191 Heartland Express, Inc. 901 N Kansas Ave North Liberty IA 52317 US Julie Durr Director of Event and Employee Relations 3196263600 events@heartlandexpress.com

11/7/2010 11/8/2010 XB214 Quad States Industries 1020 Albany Place SE Orange City IA 51041 US

11/7/2010 11/8/2010 XD189 Wright Tree Service, Inc. 139 6th St WEST DES MOINES IA 50265 US Kevin Fitzpatrick

3/21/2011 11/8/2010 XB212 GuideOne Mutual Insurance Company 1111 Ashworth Rd WEST DES MOINES IA 50265 US Pam Ulfers Fleet Admin 5152675813 pulfers@guideone.com

11/7/2010 11/8/2010 ZA719 Farm Bureau Financial 5400 University Avenue West Des Moines IA 50266 US

11/7/2010 11/8/2010 XC133 J.R. Simplot Company 999 Main Street Boise ID 83702 US

11/7/2010 11/8/2010 ZZ021 Building Materials Holding Corporation 720 Park Boulevard, Suite 200 Boise ID 83712 US

11/7/2010 11/8/2010 ZZ022 Washington Group International 720 Park Blvd. Boise ID 83712 US

11/7/2010 11/8/2010 XB414 Abbott Labs 100 Abbott Park Road Department 073V Abbott Park IL 60064 US Diane Lopez

11/7/2010 11/8/2010 WN223 Associated Material Handling 133 N Swift Road Addison IL 60188 US

11/7/2010 11/8/2010 ZZ087 Ritter Technology, LLC 4838 West 128th Place Alsip IL 60803 US

11/7/2010 11/8/2010 ZZ049 Engineered Abrasives 11631 South Austin Avenue Alsip IL 60803 US

11/7/2010 11/8/2010 ZZ027 American Colloid Company 1500 W. Shure, 1 N. Arlington Arlington Heights IL 60004 US

11/7/2010 11/8/2010 ZZ077 Nicor Gas 424 South River Street Aurora IL 60506 US

11/7/2010 11/8/2010 ZZ042 Chemcentral 7050 West 70 st Street

One State Farm Plaza, Total Rewards-Benefits C-

Bedford Park IL 60638 US

12/29/2010 11/8/2010 XB516 State Farm Insurance

1 Bloomington IL 61710 US Shaun Totterer HR Benefits Analyst 309-766-4824 shauntona.m.totterer.cj1b@statefarm.com

More magazines by this user
Similar magazines